Location: Bakhuizen
(52.8696°N, 5.4575°E)
Time: 20:35:33
(UTC+00:00)

Cosmos 1300 Rocket - Pass Details

Date: 11 May 2021
Orbit: 601 x 627 km, 82.5° (Epoch: 21 June)

Event Time Altitude Azimuth Distance (km) Brightness Sun altitude
Rises 23:13:17 0° 353° (N) 2,919 8.7 -18.8°
Reaches altitude 10° 23:15:38 10° 0° (N) 2,004 7.4 -18.9°
Maximum altitude 23:19:51 42° 72° (ENE) 892 4.4 -18.9°
Enters shadow 23:21:42 27° 124° (ESE) 1,184 4.7 -18.9°
